Theta_e
339 341 339 339 339 337 342 345 339 338 343 342 339 341 342 338 335 338 345 344 343 351 355 346 342 343 345 345 343 343 344 345 344 345 346 347 347 347 347 348 349 349 348 348 348 347 347 347 347 348 347 347 348 349 350 350 350 350 350 350 350 349 349 350 350 348 343 338 337 337 337 336 336 336 336 336 336 335 335 337 338 337 337 339 344 347 348
336 338 336 341 341 336 340 346 343 342 345 344 342 346 346 339 337 343 344 342 346 349 348 345 342 343 345 343 343 344 344 343 344 344 344 345 345 346 346 346 347 348 348 348 347 346 347 347 347 348 348 349 349 349 350 350 350 350 350 350 350 350 350 350 350 351 348 343 338 337 338 337 336 335 335 335 335 334 335 336 337 338 339 342 344 346 347
335 341 340 340 340 337 338 342 345 344 342 341 342 345 346 341 341 346 346 346 351 347 342 342 342 342 344 343 343 344 343 343 344 343 344 344 344 344 344 344 346 346 347 347 346 346 347 347 347 347 348 349 349 349 350 350 350 350 349 350 350 350 351 351 350 351 351 349 345 340 338 338 337 336 335 335 335 335 335 336 337 338 341 344 345 346 346
331 337 337 340 340 335 334 338 342 341 338 339 343 345 345 345 346 346 342 345 353 348 340 340 341 341 342 341 342 342 342 342 342 343 344 344 343 343 343 343 344 345 346 347 347 347 346 347 347 347 347 348 348 349 350 350 350 350 349 349 350 350 351 351 350 350 350 350 349 346 341 338 338 338 337 336 336 336 336 336 337 339 341 344 345 345 345
332 335 335 338 338 334 335 337 336 339 343 344 344 345 344 345 348 349 346 348 350 344 339 340 340 340 341 341 341 341 341 341 342 343 343 343 343 344 344 344 344 344 345 347 347 348 347 347 347 347 348 348 348 349 349 350 350 350 349 349 350 351 351 350 351 350 349 349 349 349 347 342 339 338 338 338 338 338 338 337 337 339 341 343 344 345 346
330 334 335 334 332 333 338 337 333 337 344 345 345 348 349 346 346 348 348 345 342 338 340 342 340 340 341 340 340 341 341 342 342 343 343 343 344 345 345 345 345 345 346 346 347 348 348 348 347 347 348 348 348 349 349 349 350 349 349 349 349 349 349 349 350 350 350 349 348 348 348 345 342 340 339 339 339 340 342 340 340 339 341 343 345 345 346
330 336 338 332 332 339 342 337 335 338 342 343 344 348 351 349 346 347 348 346 342 338 338 339 338 339 341 340 341 342 343 343 343 343 343 343 343 344 344 345 345 346 347 347 347 348 348 349 348 347 347 348 348 348 348 348 348 348 349 348 348 348 348 348 349 348 348 349 349 348 347 345 344 342 342 341 340 343 345 346 345 343 342 344 346 345 346
329 332 333 331 334 341 339 335 336 338 339 339 337 339 348 352 348 348 353 350 341 336 336 337 339 341 341 341 342 342 342 343 344 344 344 343 343 343 342 343 344 346 347 348 348 347 347 348 349 348 348 349 348 348 347 347 347 347 348 348 348 348 348 348 348 347 347 349 350 349 346 344 345 346 346 345 344 345 348 349 349 347 344 344 346 346 346
330 332 331 332 333 332 333 338 338 335 337 340 337 335 344 351 344 343 352 350 338 335 339 340 340 341 342 342 341 342 342 343 343 343 343 343 344 343 341 341 341 344 346 347 347 347 347 347 348 349 349 349 349 348 347 347 347 347 348 348 348 349 349 349 348 348 348 348 351 351 348 345 347 348 349 348 347 347 348 349 350 349 347 346 346 347 347
334 337 332 331 330 330 339 345 338 331 334 338 337 336 342 347 339 337 347 348 339 337 340 341 340 339 341 343 342 341 342 342 342 342 342 342 343 343 341 340 340 342 345 347 348 348 347 346 348 349 349 349 349 349 348 348 348 348 349 349 349 349 349 350 350 349 349 349 351 352 350 348 346 346 347 349 349 348 348 349 350 350 350 349 348 348 348
329 333 331 330 331 334 343 345 335 330 333 334 334 338 343 343 336 336 342 342 336 337 340 341 339 339 343 347 342 339 341 341 341 342 342 342 342 341 339 340 340 341 344 347 348 348 347 346 346 348 349 350 350 349 350 350 350 350 350 350 350 350 350 350 350 350 350 351 351 352 351 349 347 346 346 348 348 348 348 349 350 350 350 350 349 349 347
331 332 328 329 332 333 339 341 336 333 334 332 332 338 343 340 335 338 341 338 336 339 340 339 339 340 344 346 341 338 341 341 340 341 342 340 340 340 339 340 341 342 344 348 349 348 347 346 346 347 349 350 350 350 350 350 350 350 350 349 348 349 350 350 350 350 350 350 350 350 350 349 348 347 346 347 348 349 349 349 349 349 349 349 348 347 346
337 331 322 325 333 338 339 339 335 332 332 333 335 339 341 338 337 340 341 339 339 339 339 339 339 339 339 339 339 340 341 340 340 340 340 340 342 341 340 341 343 343 344 347 349 347 346 347 347 347 348 349 349 350 350 350 350 350 350 349 348 349 350 351 350 350 350 350 350 350 350 350 349 349 349 349 349 349 349 348 349 349 348 348 347 347 347
333 336 333 329 331 334 335 335 333 330 331 336 340 339 336 336 339 342 341 340 340 339 339 339 338 338 338 338 340 341 340 339 340 340 340 341 342 342 342 342 344 345 345 346 347 345 344 345 346 346 346 347 348 348 349 349 349 349 349 350 349 349 350 350 350 350 351 351 351 351 351 351 350 351 352 352 351 350 350 349 349 349 349 348 349 349 350
331 337 337 331 329 330 331 331 333 331 330 334 338 338 337 339 341 341 340 340 340 339 339 339 338 338 339 340 341 341 339 339 339 339 341 342 341 342 343 344 344 345 346 346 345 344 344 345 345 345 345 345 346 346 346 345 345 346 346 346 346 347 346 347 347 348 349 350 351 351 350 350 350 351 352 352 351 351 351 350 350 350 349 349 350 350 349
335 338 337 333 332 332 330 329 333 334 332 332 335 337 339 340 340 339 339 340 339 339 339 338 338 339 339 340 341 340 338 339 339 339 340 340 340 341 342 343 344 345 345 345 345 345 346 345 345 345 345 345 345 344 344 344 343 344 345 346 346 346 346 346 346 346 347 348 348 349 350 350 350 350 351 351 351 351 351 350 350 349 348 349 349 349 349
339 342 342 336 331 331 333 332 334 336 335 335 337 338 338 339 339 339 338 337 338 339 339 338 339 339 340 340 340 338 338 338 339 339 338 338 339 340 340 341 342 343 343 343 344 346 346 344 344 345 344 344 344 344 344 345 345 344 344 345 345 345 345 346 346 346 346 346 346 347 348 348 348 348 349 350 350 351 350 349 349 349 349 349 348 348 347
333 333 334 333 332 334 337 336 336 337 336 336 338 338 338 339 339 338 337 337 339 340 338 339 340 340 340 339 338 338 338 338 338 338 338 338 339 340 341 341 342 342 342 342 343 345 345 344 345 345 345 345 345 344 345 345 345 344 344 344 344 344 344 344 345 345 344 344 344 345 345 345 345 346 348 349 350 351 350 349 349 349 348 347 346 344 343
330 333 335 335 336 335 335 336 336 336 336 336 338 338 338 339 339 338 338 338 339 339 339 339 339 339 339 339 337 337 338 337 337 337 337 337 338 338 339 340 340 342 342 341 342 344 344 345 346 345 345 345 345 345 345 344 344 344 344 344 344 343 343 344 344 343 343 343 343 342 343 344 345 345 346 347 347 348 347 346 346 345 344 343 343 342 341
336 336 334 332 334 333 333 334 333 334 336 337 337 337 338 338 339 339 338 338 338 339 339 338 337 338 338 337 337 338 337 337 336 335 335 336 335 335 337 338 339 340 341 341 341 342 343 344 345 344 345 345 345 345 344 344 344 344 344 344 344 343 343 344 344 344 344 344 344 343 344 344 344 344 344 344 344 344 344 343 343 342 342 342 342 341 341
342 338 333 332 334 335 334 331 331 333 335 335 336 337 337 338 338 339 338 338 338 338 337 336 335 336 337 337 337 337 337 336 335 336 336 335 333 333 334 335 336 337 338 338 339 340 341 342 343 343 343 343 344 344 343 342 343 343 344 345 345 344 345 344 344 344 344 344 344 344 344 344 344 343 343 343 343 343 342 342 341 341 341 340 340 341 341
345 342 337 334 336 338 335 330 330 333 334 334 336 336 336 336 337 338 338 338 339 338 337 335 334 335 337 337 337 337 337 336 336 337 336 335 333 332 332 332 334 334 334 335 335 336 338 339 341 342 341 341 342 342 342 342 342 341 342 343 342 342 343 342 342 342 343 342 343 342 343 343 343 342 342 343 342 342 341 341 340 340 340 340 340 341 341
343 339 333 330 332 334 332 328 328 331 333 335 335 335 336 336 336 337 338 338 338 338 336 334 333 335 336 336 336 337 337 336 337 336 334 332 331 330 330 331 332 332 332 332 332 332 333 335 336 338 338 338 339 339 340 341 341 340 340 339 340 341 341 340 341 341 341 341 341 340 341 341 341 341 341 341 340 339 339 339 339 339 339 340 340 339 337
332 329 328 328 329 330 330 329 329 331 332 334 334 334 335 336 336 337 338 337 337 338 337 334 334 335 335 336 336 336 336 336 336 335 333 331 330 330 329 330 330 330 330 330 330 329 330 331 332 333 333 334 335 337 339 340 340 340 339 339 339 340 340 340 340 339 338 338 336 335 335 335 336 337 338 338 337 336 335 335 335 335 335 335 335 334 333
327 327 328 329 329 330 331 330 329 330 333 334 334 334 334 334 335 337 338 338 338 338 336 334 333 334 335 335 336 336 336 336 335 334 332 332 331 330 329 329 330 330 329 329 329 329 329 329 330 330 330 330 330 331 333 335 336 337 337 337 338 338 337 336 334 332 330 328 326 325 325 325 326 328 329 330 331 330 327 326 324 324 324 324 323 323 323
328 328 328 329 331 331 331 331 331 331 333 333 333 334 333 333 335 337 338 338 338 338 337 334 333 334 335 335 335 336 335 335 334 333 332 331 330 330 330 330 330 330 330 329 329 329 329 330 329 329 329 329 328 327 327 328 330 331 331 331 330 329 328 326 324 321 319 317 315 315 315 315 315 315 316 316 317 317 316 314 313 312 311 311 311 311 311
328 328 328 332 334 332 331 332 331 330 332 333 333 334 334 334 336 338 338 338 338 337 337 334 333 333 334 335 335 334 334 334 333 332 331 331 329 328 328 328 329 329 329 329 328 327 327 326 325 325 326 327 327 327 326 324 324 323 324 323 323 322 321 320 318 317 316 314 312 311 310 309 309 309 309 309 309 309 309 308 307 307 307 307 307 307 307
328 328 328 330 331 328 328 330 330 331 332 333 333 334 335 336 336 337 338 338 337 337 337 334 333 334 334 334 334 334 333 333 332 331 331 330 328 327 327 326 327 328 329 329 329 327 326 325 323 322 322 322 322 324 325 325 324 323 322 322 323 323 323 322 322 321 320 318 317 316 314 313 310 308 307 307 307 307 307 307 307 307 307 307 307 307 308
329 329 328 328 326 324 325 328 330 332 332 332 333 335 336 336 336 337 337 337 337 337 336 334 333 333 333 334 334 333 331 330 329 330 330 329 328 328 328 327 328 330 330 330 330 330 330 329 327 325 323 321 319 319 320 322 323 323 324 324 324 325 325 324 323 323 322 321 322 322 321 319 316 313 313 312 311 310 309 308 308 307 307 308 308 307 308
329 329 330 329 326 324 324 327 330 331 332 333 334 335 335 335 335 336 336 335 336 337 336 334 333 333 333 334 333 330 327 326 328 329 329 329 329 329 328 328 330 331 331 331 331 331 331 331 331 330 329 326 323 321 320 320 320 321 322 324 324 324 324 324 323 323 324 324 325 325 325 323 322 322 321 321 320 318 316 314 312 311 310 310 310 309 309
329 330 331 330 328 326 325 327 329 331 332 333 335 335 335 335 335 335 335 334 335 336 336 334 333 333 333 332 331 327 325 326 329 329 329 329 329 329 328 329 330 330 330 330 329 328 329 330 330 330 329 327 326 324 323 323 323 322 322 323 324 324 324 323 323 324 325 326 326 326 326 326 326 325 325 324 324 323 322 321 319 318 316 315 315 314 314
329 332 332 331 329 327 327 329 330 331 333 335 335 335 335 335 334 334 334 333 333 335 335 334 333 333 332 331 329 327 326 327 329 329 329 330 330 329 329 329 329 330 330 329 327 327 328 329 329 328 328 327 327 327 325 325 325 326 326 325 325 326 326 326 326 325 326 326 327 327 327 327 326 326 326 325 325 325 324 324 323 323 322 321 321 320 320
330 332 332 331 329 329 329 330 330 331 333 334 334 334 335 335 335 334 333 332 332 333 333 332 332 332 331 330 330 329 329 329 329 330 330 331 330 330 330 330 330 330 330 329 328 329 329 329 329 329 329 328 329 329 328 327 326 326 326 327 327 327 327 327 327 327 327 327 327 327 327 327 326 326 326 326 326 325 325 325 325 324 324 323 323 323 322
328 329 329 329 329 328 328 328 329 330 332 333 334 335 335 334 334 334 333 331 330 330 328 328 329 330 330 329 330 330 330 330 329 329 330 330 330 331 331 331 330 330 330 329 329 329 329 330 330 329 330 330 329 329 330 329 328 327 326 326 326 327 327 327 327 327 327 327 327 327 327 327 327 327 326 326 326 326 326 325 325 325 324 324 324 324 323
326 326 327 328 328 327 327 327 328 328 329 331 334 335 335 334 334 334 333 332 330 328 326 325 327 329 329 329 329 331 331 329 327 327 328 329 329 330 330 330 330 329 329 329 330 330 330 330 329 328 329 329 329 329 328 328 328 328 327 326 326 326 326 326 326 326 326 326 326 327 327 326 326 326 326 326 326 326 326 325 325 325 325 324 324 323 323
326 326 327 328 329 328 327 327 328 328 328 329 331 333 334 335 334 333 333 333 331 328 326 326 327 329 329 328 329 330 330 328 326 327 329 329 329 329 329 329 329 328 328 329 330 330 330 329 329 328 327 326 326 325 324 325 327 327 326 325 325 325 325 325 325 325 325 325 325 325 326 325 324 325 325 325 325 325 325 325 324 324 323 323 323 322 322
325 326 327 328 329 329 328 328 329 330 329 329 330 331 333 334 334 334 333 332 331 328 326 326 327 328 328 327 328 329 329 328 327 328 329 329 329 330 330 330 330 329 329 330 330 330 330 328 326 323 320 317 314 314 315 319 324 326 325 324 322 322 322 322 323 324 324 324 324 324 323 322 322 322 321 321 321 322 322 323 323 322 322 321 320 319 319
324 325 326 328 329 329 328 328 329 331 330 330 329 329 330 332 334 334 332 331 331 329 326 325 326 326 326 327 328 328 328 328 328 328 329 329 329 330 331 331 330 330 330 330 330 329 327 324 318 314 312 309 307 305 307 310 315 319 321 321 320 320 319 320 321 322 323 323 322 322 321 321 321 320 319 318 317 317 318 320 320 320 320 319 318 317 317
324 325 326 328 329 330 329 328 330 330 330 330 329 328 329 332 334 333 331 330 329 328 326 326 326 325 326 326 327 328 328 329 329 329 329 329 329 330 331 331 330 330 329 329 328 326 322 317 313 311 310 308 306 304 304 305 308 311 313 315 316 317 318 318 319 320 321 321 320 320 320 320 319 319 318 317 316 316 317 317 317 317 318 317 317 317 316
324 325 326 327 329 330 330 329 330 330 330 330 329 327 328 331 333 333 331 328 328 327 327 326 325 325 325 326 327 328 329 329 329 329 329 329 330 330 330 330 330 329 329 328 326 323 318 314 312 311 309 306 305 304 304 305 307 309 311 313 314 315 316 316 317 317 317 317 317 317 317 317 316 315 315 315 315 315 316 316 315 315 316 316 316 316 316
324 325 326 327 328 329 330 330 330 330 330 330 329 327 327 329 331 332 331 328 327 327 326 326 326 327 326 326 327 328 329 330 329 329 329 329 329 329 329 330 329 329 328 326 323 320 317 314 312 310 307 305 304 305 305 307 309 311 312 313 313 314 314 315 314 315 315 315 314 314 314 314 314 314 314 314 314 314 314 314 315 315 315 315 315 316 315
324 325 326 327 328 329 330 330 330 330 330 330 329 328 328 328 330 332 331 329 327 326 326 326 327 327 327 327 328 328 329 329 329 329 329 329 329 329 329 329 328 327 326 324 321 318 316 314 312 309 307 306 306 305 306 308 310 312 313 314 313 313 313 313 313 313 313 313 313 314 314 314 314 314 314 314 314 314 314 314 314 315 315 315 314 314 314
325 326 326 327 328 329 330 330 330 330 331 331 330 328 327 328 330 332 331 329 328 327 327 327 327 327 328 328 328 328 329 329 329 329 329 329 329 329 328 328 326 324 322 321 318 316 314 313 311 310 308 307 308 308 308 309 312 313 314 314 314 313 312 311 311 311 311 312 313 313 314 314 314 314 314 314 314 314 314 314 314 314 314 314 314 314 315
325 326 326 327 328 329 330 330 330 330 331 331 330 329 328 328 330 331 332 331 330 328 328 328 328 328 328 328 328 329 329 329 329 329 329 329 329 329 328 325 323 320 318 317 316 315 313 312 312 310 308 307 307 308 308 309 312 314 314 314 314 313 312 311 310 310 310 311 312 312 311 312 312 312 313 313 314 313 313 313 313 313 313 313 314 315 316
326 325 326 327 328 328 329 330 329 329 331 331 331 330 329 329 330 331 332 333 332 331 330 330 329 329 329 329 329 329 329 328 328 328 328 328 329 328 324 320 317 316 316 316 315 314 314 313 311 309 307 305 306 307 307 308 310 312 313 313 313 312 311 310 309 309 309 310 309 309 309 309 310 310 311 312 312 313 313 313 313 313 313 312 313 313 313
327 327 327 328 328 328 329 329 329 330 331 331 332 331 330 329 330 330 331 332 332 333 332 332 332 331 331 330 330 329 329 329 329 328 328 328 327 324 319 315 313 313 315 316 315 315 315 314 311 308 306 305 305 306 306 307 309 311 312 312 312 311 310 310 310 310 310 310 310 310 310 309 310 310 311 311 311 312 312 312 312 312 311 312 311 311 311
327 328 329 329 329 329 329 329 330 330 331 332 332 332 331 331 331 331 331 332 333 333 333 333 333 333 333 332 331 330 330 329 329 329 329 328 326 321 317 315 314 314 315 316 315 315 315 314 310 306 304 304 304 304 305 306 308 310 311 311 311 311 310 310 310 310 310 310 310 310 310 310 310 310 311 311 311 311 311 311 311 311 311 311 311 310 310
326 327 328 329 330 330 330 330 331 331 331 332 332 333 332 332 331 332 332 332 332 332 333 333 333 333 333 333 332 331 329 328 328 328 328 328 326 322 316 313 314 315 315 315 315 315 315 312 308 305 303 303 303 304 306 307 308 310 310 310 310 310 310 310 310 310 310 310 310 310 310 310 310 311 311 311 311 311 310 310 310 310 310 310 309 309 309
327 326 327 327 328 328 329 330 330 331 331 332 332 333 333 332 333 333 332 330 329 329 331 332 333 332 332 332 331 331 329 329 328 328 327 327 326 322 316 313 314 314 314 315 316 316 314 310 307 305 303 302 303 305 306 307 307 308 309 309 309 309 309 309 309 309 309 309 309 309 309 310 310 311 311 310 310 310 310 310 309 309 308 308 308 307 307
327 327 326 326 326 326 327 327 328 329 330 331 331 332 333 332 333 333 331 329 327 327 329 331 332 332 331 331 331 330 330 329 329 328 327 326 323 319 316 314 314 314 315 317 317 315 311 307 305 304 303 303 304 305 305 305 305 306 306 306 307 307 308 308 308 308 308 308 309 309 310 310 310 310 310 310 309 309 309 308 308 307 307 306 306 305 305
327 327 326 326 326 326 326 327 327 328 329 330 330 331 331 332 332 332 331 330 329 330 330 331 332 332 332 331 330 330 330 329 329 328 326 323 319 317 316 314 313 315 317 317 314 310 306 305 304 304 304 304 305 305 304 304 304 304 304 305 306 306 307 307 307 307 308 308 308 309 309 309 309 309 309 308 308 308 307 307 307 306 306 305 304 304 305
327 327 328 328 328 328 328 328 328 328 328 329 330 330 330 331 332 332 331 329 329 330 330 330 330 331 331 332 331 330 330 329 329 328 324 320 316 315 314 313 313 316 316 313 308 306 306 305 304 304 304 305 305 305 305 305 304 304 304 305 305 306 306 306 307 307 308 308 308 308 308 308 308 307 307 307 307 307 307 307 307 306 305 305 304 304 304
Wind_Speed
6 4 3 2 3 2 3 4 4 3 3 4 3 4 5 5 4 6 5 4 4 6 4 4 3 3 4 6 8 10 12 14 14 12 11 12 13 13 13 13 15 17 19 21 23 26 30 33 34 34 35 37 37 38 39 38 37 36 34 32 30 29 28 26 22 20 21 24 25 25 25 26 26 26 26 26 25 25 24 23 23 23 22 22 22 22 22
5 2 2 4 4 3 1 3 5 4 4 5 5 5 5 5 5 6 3 4 7 6 5 5 5 5 6 8 11 13 13 13 14 13 12 12 14 14 14 14 14 16 18 19 19 20 24 29 33 34 35 37 38 39 39 39 38 36 35 34 32 31 29 28 26 23 21 23 24 25 25 25 26 25 25 24 25 25 25 24 24 24 23 23 22 23 22
5 4 2 2 4 4 2 5 4 3 2 3 3 3 3 3 4 4 1 2 6 5 3 4 5 7 7 10 13 14 13 12 12 12 12 12 13 14 15 15 14 15 15 17 18 18 19 22 27 32 35 36 37 39 39 38 38 37 35 34 33 32 32 30 28 26 24 24 24 25 25 25 25 25 25 24 24 25 25 25 25 25 24 24 24 24 23
4 4 4 3 4 4 1 6 7 5 4 3 3 3 3 4 3 2 0 2 5 4 1 2 4 6 8 10 13 13 12 11 11 12 13 13 14 14 15 15 14 14 13 14 15 17 18 19 21 26 31 34 36 38 39 38 37 37 36 33 32 33 32 30 28 26 25 24 25 26 26 25 26 25 25 25 25 25 26 26 25 25 25 26 25 24 24
4 5 1 4 5 6 3 6 6 5 3 3 3 3 4 5 5 4 3 4 4 3 2 3 4 5 8 11 11 11 12 11 10 11 12 13 13 13 14 14 14 14 13 13 14 16 18 19 19 20 25 31 34 36 37 37 37 37 35 32 32 31 30 29 30 28 25 23 24 26 26 26 26 26 26 26 26 26 26 26 26 26 26 26 25 25 24
3 6 1 4 4 2 4 5 4 4 3 4 4 4 5 5 3 3 3 3 3 4 5 5 5 7 8 9 9 9 9 9 10 11 11 11 12 11 13 14 13 13 14 15 14 15 17 18 18 18 20 25 29 32 34 36 37 36 33 31 30 29 28 29 31 29 27 25 24 25 26 26 27 27 27 27 26 26 25 26 26 26 26 26 26 25 24
2 2 4 4 2 5 6 5 3 4 3 5 4 5 5 6 4 2 2 3 4 6 7 7 7 7 6 6 7 7 7 7 10 11 11 12 12 12 12 13 13 13 13 14 14 14 16 17 17 17 17 19 23 27 30 34 35 34 32 30 28 27 27 28 29 28 27 26 25 24 24 25 26 26 27 27 27 26 25 25 25 26 26 27 26 26 25
2 1 3 3 5 6 5 6 4 2 2 3 1 5 6 6 6 5 4 4 5 5 5 5 4 3 3 3 4 5 5 6 8 10 10 11 12 13 14 14 14 14 15 14 13 12 14 16 16 17 17 16 19 23 27 31 33 32 30 29 27 27 28 28 28 27 26 27 27 24 24 25 26 26 26 26 27 26 25 25 24 24 26 27 27 26 26
3 2 2 2 4 5 4 4 3 3 3 3 3 2 6 6 7 8 5 3 5 5 4 5 4 1 1 1 3 4 4 5 6 7 10 11 11 11 13 15 14 13 15 15 12 10 11 14 15 16 17 16 15 18 22 26 28 27 27 27 27 28 28 28 28 27 26 27 28 26 25 25 27 27 27 27 27 27 27 26 25 25 25 26 27 27 27
3 4 1 1 2 3 5 6 4 3 4 6 6 3 5 6 8 12 9 6 6 6 7 7 5 2 1 2 4 5 3 4 6 7 9 10 10 9 12 16 15 11 12 13 10 7 6 8 10 12 15 16 14 15 18 19 20 21 22 22 23 24 25 25 26 27 27 28 29 28 27 27 27 28 28 28 28 28 28 28 28 28 27 27 29 29 28
2 4 3 2 3 4 6 7 5 2 5 8 5 4 5 6 7 13 10 8 9 11 12 11 6 3 1 3 4 4 3 4 5 7 8 8 10 11 13 16 14 10 10 10 7 6 4 3 5 8 12 13 12 12 14 15 16 17 17 17 18 19 20 21 23 24 25 27 28 29 29 29 29 29 28 28 28 28 29 31 32 30 29 30 30 28 26
2 4 2 2 4 4 4 6 5 3 7 7 5 2 6 5 7 14 12 10 13 15 16 13 7 4 3 3 2 2 2 4 5 7 8 8 10 12 12 13 10 8 9 8 5 4 3 2 4 5 9 11 11 12 12 13 14 14 15 16 17 18 19 20 21 22 23 26 28 29 30 29 29 29 29 29 30 29 30 31 31 30 30 30 30 28 26
3 4 2 3 4 4 5 5 3 4 7 5 3 3 6 4 9 12 11 11 14 18 19 16 11 7 5 2 1 1 2 5 5 7 8 8 9 10 10 10 8 7 8 7 4 1 2 6 7 5 6 10 12 12 11 12 13 13 14 15 17 19 19 19 20 22 23 25 27 28 28 28 28 27 28 30 32 31 31 30 28 27 27 27 27 26 27
2 3 2 1 4 4 4 4 4 5 5 2 3 4 3 5 10 10 7 8 11 15 20 20 14 8 4 3 3 2 2 5 6 7 7 7 7 7 6 7 6 7 7 4 3 3 5 7 7 6 7 9 11 11 9 9 9 10 10 12 14 16 18 19 21 23 24 24 25 26 27 26 25 25 26 29 31 31 32 30 26 23 23 23 24 23 22
3 2 3 1 3 4 6 8 4 3 3 3 4 3 3 5 8 7 5 7 8 11 16 17 13 7 4 4 4 1 2 3 4 5 5 5 6 6 6 5 4 5 8 4 6 9 8 9 9 7 6 9 10 10 8 8 7 7 7 7 8 10 12 15 18 20 21 21 22 23 23 23 24 25 27 28 29 29 29 27 22 20 20 20 19 18 18
4 2 1 3 3 4 8 8 2 2 2 2 1 4 6 6 6 4 4 5 5 7 10 13 13 9 6 7 4 1 1 2 4 4 4 5 6 6 7 7 4 4 7 4 8 12 11 11 11 8 5 8 10 10 9 8 7 7 6 5 5 5 5 6 9 12 13 13 15 17 19 21 24 26 27 26 24 23 23 21 18 17 16 16 16 17 17
4 4 5 5 3 2 6 6 3 2 1 1 3 4 4 5 5 3 2 4 5 6 8 10 12 10 9 8 5 3 4 4 4 5 5 6 6 6 6 7 7 7 6 2 9 12 11 11 12 10 7 6 9 10 10 9 7 8 9 9 9 9 8 6 4 5 6 8 12 16 18 19 22 24 25 22 19 18 17 15 14 14 14 15 15 15 15
2 3 4 4 3 1 4 4 2 1 1 2 3 2 1 2 3 3 2 3 6 7 8 10 12 12 11 9 6 5 5 5 6 6 6 6 5 4 4 4 5 7 8 8 9 10 11 11 12 11 8 8 9 11 11 9 8 9 9 8 8 9 9 8 7 6 5 4 6 9 12 15 18 19 18 16 14 15 15 14 15 15 14 14 13 14 14
2 1 4 4 3 3 3 2 2 2 2 1 2 2 2 2 2 3 3 4 6 9 9 10 12 12 10 9 8 7 6 7 7 6 6 6 6 5 5 6 6 6 9 10 10 11 11 11 11 9 8 9 12 12 12 10 10 8 7 6 7 8 10 10 9 8 7 6 5 4 4 8 11 12 12 12 12 13 13 13 12 12 12 12 12 12 11
3 3 6 5 4 6 5 4 5 6 5 4 3 2 3 3 3 3 4 6 9 12 11 9 10 10 10 9 8 9 9 7 6 6 6 7 8 9 9 9 10 9 10 11 11 12 12 11 11 9 8 9 11 13 14 13 11 9 8 8 8 9 11 12 10 9 8 7 6 7 7 8 9 9 10 10 10 10 10 9 9 8 9 9 9 8 6
1 4 6 5 4 7 9 10 11 10 8 6 4 3 4 5 5 5 6 9 10 11 11 8 8 9 10 8 7 9 10 8 6 7 9 9 8 9 10 12 12 13 13 13 13 13 12 10 9 9 9 10 11 13 13 12 10 9 10 11 10 10 12 11 10 9 8 7 7 7 7 8 8 9 10 9 8 8 9 10 9 9 8 9 10 9 8
2 4 6 7 3 3 6 8 10 13 11 8 6 6 6 6 6 7 9 12 12 11 10 7 6 8 10 8 8 9 10 9 8 9 9 8 8 9 10 11 13 14 15 16 16 16 15 11 9 9 10 10 10 11 10 10 8 6 7 9 10 9 9 9 8 8 8 7 7 7 7 7 7 9 10 11 9 9 10 10 9 8 8 8 8 9 8
5 5 9 13 8 2 2 1 3 9 13 10 7 7 6 6 7 7 10 14 16 14 11 7 6 7 8 8 9 10 12 11 9 10 10 9 9 10 10 11 13 14 15 16 17 18 18 16 15 15 14 13 13 12 11 9 8 7 7 9 10 10 9 9 8 7 8 8 9 10 10 9 8 8 9 11 11 10 11 10 9 8 7 6 7 8 8
3 3 5 11 10 6 3 1 1 5 11 10 8 7 6 6 7 7 10 14 16 16 14 10 8 7 8 9 10 12 12 11 9 10 11 11 11 12 12 13 15 16 16 17 18 19 20 20 20 21 20 19 17 16 13 10 8 9 10 11 12 12 11 10 10 10 11 12 14 14 13 12 11 9 9 11 12 13 12 12 11 11 11 10 9 10 10
2 2 3 7 11 10 6 2 1 4 9 10 8 6 6 7 7 8 11 14 15 16 15 13 11 10 9 10 12 12 11 10 9 11 12 12 11 12 13 14 16 17 17 17 18 19 20 21 22 22 22 21 20 18 17 15 13 13 14 15 15 15 14 14 15 15 16 16 16 16 16 15 14 13 12 12 13 14 15 14 14 13 13 13 12 12 11
5 4 4 7 10 12 10 5 3 6 10 10 7 6 7 7 7 7 10 14 14 13 13 13 13 12 11 11 12 12 11 10 10 10 10 10 10 10 11 13 14 15 16 17 17 17 18 19 21 21 22 21 20 19 19 18 17 18 19 19 19 19 18 18 18 18 18 18 18 17 17 16 15 15 15 14 14 15 15 15 15 14 14 14 13 13 12
8 7 7 8 9 11 12 10 6 7 10 10 8 7 8 8 8 9 11 14 14 12 12 13 13 13 14 14 13 12 11 10 10 10 8 8 9 9 11 12 13 14 15 16 17 17 17 18 19 20 20 20 18 17 17 18 18 19 20 21 21 21 21 20 20 20 20 19 19 18 18 17 16 16 16 16 16 16 16 16 16 16 16 16 15 15 14
10 9 9 7 5 7 10 9 7 7 10 11 9 9 10 11 11 12 14 16 15 14 14 14 13 14 16 16 13 11 11 10 10 9 9 9 9 10 11 13 14 14 16 17 18 18 18 19 20 20 20 19 17 16 16 16 17 19 19 20 21 21 21 20 20 20 20 19 19 19 18 18 18 17 17 17 17 17 16 16 16 16 15 15 14 14 13
11 11 12 10 6 4 6 9 10 10 11 12 12 11 12 13 13 14 15 16 15 16 17 16 14 15 16 16 13 11 11 10 10 10 11 11 10 10 11 12 13 14 15 16 16 16 17 18 19 19 20 19 18 16 15 15 17 17 18 18 18 18 19 19 18 18 18 18 18 19 19 19 19 18 18 18 18 17 16 16 15 14 14 13 13 12 12
13 14 14 12 8 6 7 10 12 12 12 14 14 13 13 14 15 15 16 16 16 18 18 17 15 16 17 15 13 11 10 11 12 12 12 11 10 9 9 11 12 12 12 12 13 13 14 14 15 16 17 17 16 15 14 14 15 15 16 16 16 16 16 16 16 16 16 17 18 18 18 18 19 19 19 18 18 17 17 16 16 15 14 14 13 13 12
16 17 17 14 10 7 7 10 12 12 12 14 14 14 15 16 16 17 17 18 18 19 18 17 16 17 17 15 12 12 13 14 14 13 12 11 10 8 8 8 8 8 9 9 11 12 12 12 12 13 14 14 13 12 11 11 11 12 13 13 13 14 14 14 14 15 15 15 16 16 16 16 16 16 16 16 16 16 15 15 15 14 14 13 13 12 12
17 17 15 13 9 7 8 11 13 13 14 15 16 17 17 18 18 19 19 20 19 19 19 17 17 17 17 15 14 14 15 15 13 12 12 11 10 8 6 5 5 5 7 8 9 9 8 9 10 11 11 10 10 9 9 8 8 9 9 10 10 10 10 11 11 12 12 12 12 12 12 12 12 12 12 12 12 12 12 12 11 11 10 11 11 10 11
18 16 14 14 13 11 12 14 15 14 14 16 16 17 17 17 18 19 20 20 20 19 18 17 17 17 17 17 15 15 15 14 13 12 12 12 10 9 7 5 4 4 6 8 8 6 5 5 6 8 7 6 6 6 7 7 6 6 7 7 7 7 7 7 7 7 7 8 8 8 8 8 8 8 8 8 8 8 8 8 8 8 8 8 8 8 8
19 17 17 19 17 14 13 15 16 16 16 15 16 17 17 17 18 19 20 20 20 19 18 17 17 18 18 18 17 16 15 14 13 13 13 12 11 10 8 6 5 5 6 6 6 4 3 3 3 4 3 2 2 2 3 4 4 4 4 5 4 5 5 5 5 5 4 4 5 5 5 6 5 5 5 5 5 5 4 4 4 4 4 4 4 4 4
21 20 19 20 19 16 13 12 13 15 16 17 17 18 18 18 19 20 21 21 20 19 18 17 17 18 19 18 18 17 15 13 13 13 13 12 11 10 9 8 7 6 6 5 5 4 2 2 2 2 1 1 1 1 2 2 1 1 2 2 2 3 3 3 3 3 3 3 3 3 3 4 4 3 3 3 3 2 1 1 0 1 1 1 1 1 1
22 22 21 21 20 18 15 13 12 13 15 16 17 18 19 20 21 21 22 21 20 20 19 18 18 19 20 19 19 17 15 13 13 12 12 12 11 11 9 8 7 7 6 6 5 5 4 3 3 3 3 4 5 5 5 4 3 2 1 1 2 2 3 3 3 3 3 3 3 2 2 3 3 3 3 3 3 3 3 3 2 2 1 1 1 1 2
21 22 22 22 21 18 15 13 12 12 13 14 16 17 19 20 21 21 21 22 22 22 21 19 18 19 20 20 18 17 15 14 12 11 11 11 11 11 10 9 8 7 6 6 6 5 4 4 4 5 6 6 6 7 7 6 6 5 4 3 2 2 3 3 2 2 3 3 3 2 2 2 2 1 1 1 0 2 2 3 3 2 2 2 1 2 2
17 19 21 22 22 20 16 12 11 11 12 13 15 16 17 18 20 20 20 21 23 23 23 20 18 18 20 20 19 17 16 15 13 12 11 11 11 11 10 9 8 7 6 6 6 5 5 5 5 5 5 5 4 4 4 5 5 6 5 4 3 2 2 2 2 3 3 3 2 1 1 1 2 2 3 3 2 1 2 2 2 2 2 2 1 2 2
16 18 20 21 22 21 18 14 12 12 12 13 14 16 16 18 19 19 20 21 22 24 24 22 19 19 20 21 20 19 17 16 14 13 12 11 11 11 9 8 7 7 7 7 6 5 5 4 4 4 5 5 4 4 3 3 3 3 3 2 2 2 2 3 3 3 4 3 2 2 2 2 4 4 5 4 3 2 2 3 3 3 3 3 3 3 3
17 18 19 20 20 22 20 17 13 13 13 13 13 15 16 18 19 20 20 21 23 25 25 23 21 21 22 22 21 20 18 17 16 14 13 12 12 11 11 10 10 9 9 8 7 6 5 4 4 5 6 6 5 4 2 2 2 2 2 3 3 3 3 4 3 3 3 3 3 3 3 4 5 5 5 4 4 3 3 3 3 4 4 3 3 4 4
17 17 18 19 20 21 21 18 16 15 14 14 14 14 16 17 19 21 22 22 23 25 26 25 22 20 21 21 21 20 19 18 17 16 14 13 13 13 13 12 12 11 9 8 7 6 5 5 5 5 5 5 4 2 2 2 3 3 3 3 3 3 4 4 3 3 3 3 3 4 4 4 4 4 4 3 3 3 3 3 3 4 4 3 3 4 4
17 17 19 20 20 21 21 20 18 17 16 16 15 15 16 17 19 20 22 23 24 25 26 26 23 19 19 20 21 21 20 20 19 17 16 14 13 12 12 12 12 11 10 9 8 7 6 6 5 4 3 2 2 1 2 3 4 3 3 3 3 3 3 3 2 3 3 3 3 3 2 2 3 3 3 3 4 4 4 4 4 4 4 4 4 4 4
18 19 19 20 20 20 20 20 19 19 18 18 16 16 16 17 19 20 22 24 25 25 26 26 24 22 21 21 22 23 22 21 20 19 17 15 13 11 10 10 10 10 10 9 8 7 6 5 4 2 1 1 2 1 2 3 4 4 4 3 3 2 2 2 3 3 2 2 2 1 2 2 3 3 4 4 4 4 4 3 3 3 4 4 4 5 5
16 18 19 19 20 20 20 21 21 21 20 19 18 17 17 18 19 21 22 24 25 26 26 26 26 24 23 23 23 24 23 22 21 20 19 18 17 15 12 11 10 10 9 9 9 8 7 5 3 2 1 2 2 3 3 4 4 5 4 4 3 3 3 3 3 3 2 3 3 3 3 3 3 3 3 3 3 3 4 4 4 5 5 6 6 6 7
11 14 16 19 21 21 21 21 21 20 20 20 20 19 19 19 20 21 22 23 24 26 26 26 26 25 24 24 24 23 22 21 20 20 19 18 17 15 15 14 12 11 9 9 9 8 8 6 4 3 3 3 4 4 4 5 6 6 6 5 4 4 4 3 3 2 2 3 3 3 3 3 2 1 0 1 2 3 4 5 5 6 6 7 7 7 7
7 8 11 15 17 18 19 19 19 20 21 22 22 22 21 21 21 21 22 23 24 25 25 25 25 24 24 24 24 23 22 21 20 19 18 16 12 10 10 11 11 11 10 10 10 10 8 6 4 3 3 4 4 5 5 6 6 6 6 5 5 4 3 3 3 3 3 3 2 2 2 2 2 1 0 1 3 3 3 4 4 5 6 7 7 7 7
5 5 7 9 12 14 16 18 19 20 21 22 23 24 23 22 23 24 24 23 22 22 22 22 23 22 22 23 24 24 23 23 22 21 20 16 12 9 8 8 10 11 11 11 10 10 8 5 4 4 3 3 4 5 6 5 5 5 5 5 4 4 3 3 3 3 3 2 2 2 1 1 1 1 1 2 2 2 2 2 2 3 4 4 5 5 5
3 3 4 7 9 12 14 16 18 20 21 21 23 23 23 24 26 27 24 20 20 22 22 21 21 21 21 22 23 23 22 22 21 21 21 19 16 13 11 10 10 11 12 12 11 10 8 6 5 4 4 4 4 5 5 4 4 5 5 5 5 5 5 4 4 4 3 3 2 2 1 1 2 2 3 3 3 2 2 2 2 2 2 3 3 4 4
3 3 3 5 7 9 11 14 16 19 20 20 22 23 24 26 28 26 22 19 20 22 23 22 22 21 21 21 22 23 22 20 19 18 18 18 18 16 14 11 10 12 13 13 12 9 7 6 6 5 5 5 5 5 4 4 4 5 5 5 5 5 5 4 4 3 3 2 1 2 2 2 3 4 4 3 3 2 2 2 2 2 2 2 2 3 4
3 3 4 5 6 7 9 11 12 14 15 17 20 23 25 26 26 25 23 22 23 24 24 24 24 22 21 21 22 23 22 21 20 18 15 15 16 16 14 12 11 12 13 13 11 9 8 7 7 6 6 6 5 5 5 4 4 4 5 5 5 4 3 3 2 2 1 2 2 3 3 4 4 4 4 3 3 2 1 1 1 1 1 1 1 2 3
4 4 4 5 5 6 7 8 9 9 11 13 16 19 21 23 24 23 22 23 25 26 25 24 24 23 22 22 22 22 22 22 22 20 17 14 14 14 13 11 12 14 14 13 11 9 8 7 7 7 7 7 6 5 4 4 3 4 4 3 2 2 2 2 2 2 3 4 4 4 4 4 4 4 4 3 2 2 1 2 2 1 1 2 3 3 4
6 6 6 6 6 6 7 7 8 8 9 10 12 14 16 18 20 19 18 20 23 26 26 24 23 24 23 23 23 23 23 24 24 22 19 15 13 13 12 13 14 15 14 13 11 10 8 7 7 8 8 7 6 5 4 3 3 3 3 3 3 3 3 3 4 4 5 5 5 5 5 5 4 4 3 3 2 2 3 3 3 3 3 4 6 7 8
Wind_Direction
244 196 195 212 142 148 175 171 206 229 175 163 178 213 209 157 168 248 246 207 229 250 240 216 225 254 269 275 283 284 285 288 291 297 301 301 302 299 290 277 266 257 249 241 232 228 227 227 227 228 227 227 228 230 231 232 233 233 235 237 239 239 239 239 240 241 238 236 237 238 239 239 239 241 243 242 242 242 241 240 239 239 239 239 237 235 235
296 281 207 196 150 127 199 213 221 222 201 200 211 222 203 178 213 243 235 243 259 252 219 207 216 235 257 274 278 277 277 283 294 305 309 309 308 307 305 298 288 278 268 258 248 238 233 229 227 226 225 226 227 228 230 230 231 232 232 234 236 237 238 239 240 242 243 241 238 238 240 241 240 241 242 242 242 242 241 241 239 238 236 234 232 231 231
308 323 47 122 140 146 231 276 266 245 256 261 245 235 199 189 243 254 224 281 281 266 208 194 214 227 245 265 268 268 277 290 304 315 318 318 315 312 309 306 299 292 283 272 262 252 246 241 234 229 226 226 228 230 230 230 232 233 232 233 235 237 237 237 237 239 242 244 243 241 241 241 241 241 241 241 241 241 241 242 241 238 235 232 231 231 232
286 316 45 94 103 93 355 296 280 245 233 236 220 218 208 192 200 212 236 282 272 267 184 179 230 241 248 261 267 277 293 304 313 322 324 322 319 319 317 311 305 298 289 279 268 258 253 249 244 237 232 230 230 231 231 231 233 234 234 234 235 237 238 241 243 242 241 242 243 243 243 242 241 241 242 241 241 240 240 240 240 239 236 234 233 234 235
261 290 14 117 74 42 339 281 260 220 202 207 216 246 237 204 164 155 210 239 238 223 170 187 239 250 253 264 278 297 310 315 320 326 328 326 326 332 333 325 316 306 297 284 268 258 253 248 245 243 237 233 232 232 232 232 233 233 234 233 234 235 238 244 246 245 245 244 243 240 240 241 241 241 241 241 241 240 239 239 238 239 238 235 233 235 239
248 282 354 90 63 8 253 247 223 200 206 205 212 235 227 209 180 158 184 210 214 198 189 200 223 232 247 270 285 299 311 316 321 329 336 340 340 341 340 336 327 315 308 301 283 262 252 246 240 238 235 232 232 233 232 231 232 232 231 232 234 236 240 244 245 245 246 249 248 243 237 237 239 239 238 237 238 238 238 237 236 236 237 235 234 237 242
193 307 44 75 218 234 244 269 255 219 197 177 204 260 245 217 219 211 189 207 212 207 209 217 223 233 255 282 291 302 314 311 315 327 340 346 346 341 339 340 338 331 321 315 302 276 258 246 234 228 227 225 224 226 228 230 231 231 231 233 236 238 240 242 244 246 246 247 248 248 242 238 237 237 236 235 234 233 233 234 236 236 235 234 234 238 244
156 72 87 155 239 255 277 300 282 222 126 111 78 306 276 224 201 196 204 221 214 206 210 205 199 231 267 281 281 298 318 316 319 331 334 332 333 335 337 335 335 336 331 320 309 288 267 252 236 225 224 222 218 217 222 227 229 230 231 233 235 237 238 240 242 246 248 246 244 244 243 239 235 234 235 235 234 233 233 235 238 239 236 233 234 238 244
155 140 182 233 299 305 293 286 253 175 146 145 142 259 272 242 194 181 175 188 199 187 167 159 155 181 284 295 262 265 297 313 313 323 324 320 319 325 330 328 323 326 328 320 312 303 280 256 237 226 226 228 222 215 218 223 226 228 231 232 234 237 239 240 242 245 248 248 245 242 241 240 238 236 236 235 234 233 232 234 238 241 240 238 239 244 248
120 103 141 313 346 283 256 255 244 183 173 182 151 133 286 271 203 182 167 159 180 169 149 154 148 108 58 297 262 246 272 305 305 314 318 318 324 328 323 319 315 314 319 318 318 325 299 248 225 218 217 217 216 213 213 216 219 222 227 230 233 238 241 242 244 246 248 249 247 244 242 241 241 241 240 239 237 234 232 234 238 242 243 242 243 248 253
110 117 144 191 206 238 247 243 248 226 194 192 136 78 309 284 200 182 170 160 175 172 164 168 156 111 166 259 261 243 268 308 319 326 321 314 324 328 317 312 312 311 316 317 317 338 335 235 203 204 202 197 198 204 204 204 209 212 217 226 233 239 242 243 245 247 248 248 247 246 246 246 245 245 245 244 240 237 235 237 240 243 245 244 246 249 253
157 141 153 217 224 245 240 229 245 223 178 163 103 45 279 261 181 181 177 173 182 179 170 170 168 158 190 244 273 251 294 329 330 327 324 322 327 326 318 318 322 320 318 310 293 315 354 98 138 177 190 184 187 200 203 200 204 208 210 218 228 235 238 239 241 243 244 244 245 246 248 250 249 249 250 249 242 236 234 237 240 243 245 245 247 249 250
151 152 186 263 256 248 232 219 211 168 152 125 103 226 246 199 164 177 182 183 189 184 176 177 190 201 207 220 201 195 321 343 339 329 325 326 328 327 325 329 334 328 314 296 267 289 81 106 108 122 159 167 175 189 198 199 205 213 215 217 224 232 237 240 241 243 244 245 247 248 249 252 252 251 253 251 244 238 235 235 237 240 241 242 243 244 246
133 150 164 291 286 255 197 147 122 140 143 141 209 217 222 166 164 167 175 188 193 191 190 192 197 203 206 196 170 166 330 341 345 340 335 332 330 333 337 335 340 339 321 279 193 110 104 113 102 95 121 144 156 165 172 177 186 199 208 216 225 232 239 243 244 246 247 249 251 252 253 254 254 253 251 247 242 237 233 231 232 234 236 237 237 238 242
126 68 60 67 285 243 162 131 108 152 180 227 223 173 128 155 167 159 164 183 190 196 200 199 198 199 189 174 172 177 344 359 5 358 358 2 356 358 358 348 350 340 313 269 140 108 95 96 88 84 112 130 132 135 136 135 137 152 179 202 216 223 230 236 238 240 242 245 249 252 253 252 250 248 244 241 236 232 229 229 228 229 232 234 236 238 241
130 104 159 196 231 213 170 158 166 222 232 275 199 152 146 153 162 162 165 175 185 197 198 192 192 194 181 171 179 191 72 63 42 27 23 25 24 18 6 359 8 355 316 273 139 114 95 88 83 79 100 119 120 116 106 101 108 118 128 138 136 141 171 201 219 226 228 234 243 247 247 246 245 240 236 233 226 219 220 222 220 221 226 231 234 238 241
165 178 213 236 269 203 183 198 234 251 227 96 115 139 151 150 158 168 166 174 184 189 191 184 178 174 168 168 176 162 130 107 67 41 27 29 35 30 16 4 4 14 20 88 138 124 106 96 92 87 91 111 119 109 91 81 89 95 93 98 102 102 106 116 141 182 200 219 236 240 239 237 233 230 228 223 207 194 194 197 197 205 218 226 231 237 242
235 238 238 252 280 211 181 195 214 177 153 139 130 134 137 140 151 145 130 174 185 181 185 179 165 161 167 168 164 154 133 105 77 56 41 43 45 27 23 26 14 27 55 86 120 120 107 102 99 95 97 101 100 96 88 78 78 81 80 87 98 101 99 97 102 120 136 163 210 231 235 226 215 210 208 200 183 172 174 180 187 198 211 221 229 238 245
167 248 249 237 231 221 197 183 209 231 240 219 183 180 194 181 162 137 125 154 171 168 171 170 159 159 169 168 157 150 133 107 87 69 59 70 73 56 47 54 54 55 66 82 106 116 112 109 106 102 106 106 100 98 96 87 80 77 78 87 100 105 102 95 95 100 99 99 113 137 177 190 182 172 166 164 164 164 169 177 186 196 207 217 226 233 237
166 228 254 256 251 248 241 225 230 244 246 237 226 210 198 190 179 153 137 152 163 159 159 165 161 158 166 168 158 145 128 108 96 95 98 93 81 70 66 64 67 71 74 83 103 113 112 110 108 109 116 120 117 111 102 91 85 91 103 107 107 110 109 105 103 104 102 104 121 133 137 140 143 145 147 152 157 158 160 167 174 181 191 197 196 194 190
280 280 266 266 280 268 248 233 234 237 236 235 231 214 195 187 185 171 152 157 165 160 154 162 164 158 161 167 161 145 132 124 129 131 118 100 82 77 76 74 74 76 78 82 90 100 105 106 105 102 102 106 109 106 101 93 89 100 118 121 119 119 120 118 118 122 124 132 141 144 141 140 147 153 149 145 148 152 153 155 152 145 146 149 141 131 130
265 260 211 186 187 265 240 230 237 234 227 223 216 207 198 189 190 183 166 165 170 168 162 162 163 160 160 164 164 153 144 143 149 140 120 106 99 90 84 84 84 82 82 84 86 90 95 95 91 89 92 99 105 103 102 103 101 111 136 140 133 127 124 120 121 126 132 135 133 128 126 130 145 156 151 141 139 138 137 138 135 129 130 130 120 114 119
221 231 200 191 193 196 172 188 244 228 219 213 204 204 205 196 195 196 183 174 173 173 171 167 166 165 160 158 161 156 152 156 152 133 121 117 112 102 94 95 95 91 89 91 90 89 91 92 92 91 92 96 99 97 97 102 105 114 136 144 140 135 131 126 122 121 120 114 106 101 101 105 119 138 141 133 125 121 120 122 123 125 129 129 122 117 114
207 234 215 209 208 194 166 140 319 210 206 203 197 196 201 200 199 203 200 189 178 173 173 171 172 174 164 157 159 155 153 158 153 133 127 122 111 105 104 103 100 98 95 93 92 92 93 93 93 93 90 89 89 91 94 98 104 114 126 132 133 132 130 125 119 113 108 104 99 97 97 99 105 116 125 127 123 117 114 114 116 118 119 118 118 117 113
211 221 224 218 213 206 202 229 285 187 193 196 194 193 195 201 201 198 199 196 186 178 175 173 171 175 171 162 159 157 154 153 146 135 129 122 112 108 108 106 103 101 97 95 95 97 96 94 93 91 89 87 87 91 96 100 105 112 118 121 122 122 121 118 113 109 105 103 102 102 102 103 105 107 110 114 115 114 114 114 113 114 115 115 115 114 113
221 213 194 193 204 210 215 226 220 196 192 190 190 192 192 195 199 195 192 192 190 185 181 175 170 172 175 170 163 159 156 149 140 134 128 124 121 117 112 109 106 102 101 100 100 100 99 97 96 93 92 90 90 93 99 104 109 111 112 113 114 114 113 112 108 105 103 102 102 103 103 104 105 106 105 105 106 108 112 113 111 110 109 107 107 106 106
216 213 192 181 196 216 225 232 232 210 196 190 190 194 192 189 188 186 185 189 194 193 186 180 175 173 176 176 170 163 159 154 149 145 140 134 129 120 115 115 112 109 107 105 104 105 104 102 100 99 97 96 95 96 100 104 107 110 111 111 111 109 109 108 106 104 103 102 101 102 102 102 102 102 102 102 101 101 103 104 105 106 105 105 105 104 102
215 210 198 194 212 228 227 228 224 204 192 191 191 191 192 189 184 183 185 190 196 196 189 184 183 180 179 181 178 169 166 168 168 164 157 148 135 122 119 121 119 116 112 108 107 107 105 102 101 98 97 97 98 101 105 107 108 109 111 112 112 111 111 110 108 106 105 104 103 101 100 99 99 99 99 99 98 99 100 100 101 103 104 105 106 105 104
216 207 203 210 224 222 209 206 200 188 184 189 191 191 193 191 186 185 188 190 194 194 189 186 187 185 182 183 182 177 175 176 174 167 159 150 136 123 124 128 125 120 116 112 111 110 108 106 103 99 96 94 95 99 107 112 113 114 115 115 115 116 116 115 114 112 111 111 109 106 103 101 100 100 100 100 100 100 101 102 103 104 104 106 106 105 105
214 207 206 212 221 229 222 208 195 185 184 189 191 192 196 196 190 185 186 188 191 193 191 188 187 185 183 183 183 179 173 166 160 157 157 151 139 129 134 137 131 124 119 116 116 116 114 112 109 105 102 99 96 96 102 110 115 118 120 120 119 119 119 120 118 117 116 116 115 112 108 106 104 102 101 100 99 99 100 100 102 103 104 105 105 103 103
211 207 207 210 218 231 229 211 198 191 189 191 193 192 193 195 192 186 185 187 190 191 192 191 188 185 183 181 177 171 166 160 157 159 160 155 145 139 141 144 140 129 119 116 118 116 113 111 110 109 106 102 98 97 99 105 113 117 120 122 122 121 121 122 120 120 120 120 117 114 112 110 109 108 106 105 103 103 102 101 101 101 101 101 100 99 97
206 199 202 208 214 221 217 210 205 199 193 193 195 195 193 194 192 187 185 187 189 191 193 195 193 188 182 177 172 168 166 164 165 166 164 160 155 148 146 152 157 140 122 120 123 118 108 102 104 106 104 101 99 97 97 105 116 120 121 123 123 121 121 121 121 123 125 124 122 120 116 114 111 109 109 110 108 105 103 100 98 97 96 95 92 88 86
201 191 196 203 202 202 209 211 211 209 205 201 199 197 196 197 195 191 188 188 189 191 195 197 196 191 184 178 174 172 172 173 173 172 169 166 163 159 156 162 170 154 134 129 127 120 103 89 91 98 100 99 97 93 91 99 113 123 130 133 130 128 127 126 125 128 129 128 129 128 124 121 117 111 109 110 109 105 99 94 90 89 89 88 83 76 74
220 220 226 223 218 220 224 222 217 215 212 205 200 198 198 199 198 196 195 193 192 193 195 195 195 190 184 180 179 179 180 179 177 174 174 173 172 171 173 176 176 167 151 139 134 129 116 98 101 111 114 107 93 78 70 80 95 113 129 137 141 143 143 140 136 137 137 137 139 139 137 136 132 123 116 115 114 109 100 92 89 87 85 82 72 60 61
239 244 245 240 236 239 242 238 230 223 215 207 201 198 199 200 200 199 199 199 198 196 193 192 192 189 184 182 183 185 186 184 179 175 175 177 179 183 186 186 186 185 176 165 161 163 161 152 146 152 172 204 279 312 319 333 15 109 128 141 159 169 171 170 164 160 159 156 152 149 146 142 140 142 144 145 146 147 144 140 128 36 31 54 43 24 25
244 245 244 239 237 237 240 243 241 233 224 215 206 199 197 200 201 201 202 203 203 200 195 192 192 191 188 187 187 188 189 188 185 181 180 182 187 192 195 197 200 203 200 195 193 192 193 197 204 225 249 260 268 275 278 280 280 267 220 191 197 201 206 212 207 193 184 180 172 162 147 137 139 149 155 164 179 194 203 214 226 239 245 233 245 286 287
243 242 242 240 237 234 237 243 242 236 229 221 212 205 201 200 201 203 205 207 207 203 198 194 194 195 194 193 191 190 191 193 193 192 192 194 197 199 201 203 204 205 209 211 208 205 210 226 248 266 274 277 277 269 261 259 262 263 263 262 243 218 217 226 224 203 183 172 165 159 149 143 143 144 123 98 196 212 218 223 217 206 201 208 231 266 272
241 236 236 239 238 234 235 239 238 233 228 221 215 212 207 202 201 202 204 206 207 205 200 197 197 199 199 196 194 193 195 197 199 201 204 207 210 211 209 208 204 205 210 213 212 219 238 259 274 281 285 293 295 282 260 249 246 251 262 270 264 244 227 220 213 202 189 179 175 181 194 250 296 312 326 331 323 278 232 226 222 221 226 231 248 269 272
240 231 230 235 236 235 234 235 232 229 226 222 218 215 209 204 201 201 202 205 207 205 202 200 200 202 202 199 197 197 199 202 205 208 212 216 218 216 212 208 205 206 210 213 219 236 256 269 278 285 293 299 303 297 277 246 230 226 234 238 234 226 212 199 195 194 191 191 195 207 233 272 296 308 312 310 303 282 256 252 258 263 261 255 256 267 269
239 230 226 229 232 233 233 231 228 225 224 224 222 217 211 205 201 199 200 204 206 205 204 202 201 203 206 205 201 200 201 205 209 212 215 217 216 212 208 206 207 212 218 223 231 245 258 264 273 286 295 300 301 294 274 235 203 179 168 171 180 191 194 193 196 201 202 207 221 238 256 277 289 295 296 291 282 269 263 260 259 259 257 253 253 258 259
236 227 221 224 229 231 231 230 229 226 224 223 222 220 216 210 204 200 200 202 204 205 205 204 204 206 209 209 207 205 206 208 212 215 216 216 214 212 211 211 213 218 225 231 238 246 252 257 269 284 292 294 291 277 231 197 186 178 170 170 177 188 194 199 209 223 234 246 258 265 273 280 281 278 275 268 263 260 259 257 254 255 257 258 258 259 259
223 219 219 223 228 230 230 231 231 230 227 225 222 218 215 215 211 205 202 202 205 206 206 206 208 210 212 211 211 210 209 210 213 215 217 219 220 219 217 217 220 225 229 234 238 242 246 253 268 286 297 294 280 237 191 183 185 187 188 187 191 200 210 223 245 264 272 273 271 268 266 262 255 253 253 252 254 256 255 253 255 256 255 255 254 250 248
221 221 224 227 231 232 231 232 233 232 230 227 224 218 214 214 215 211 206 205 208 210 209 209 211 213 214 214 213 212 210 211 213 214 215 217 219 221 223 228 232 234 235 237 240 241 242 248 261 290 321 301 278 256 211 194 193 197 202 209 221 237 258 285 309 320 319 307 290 276 265 253 250 250 250 249 250 249 243 234 226 218 217 221 222 216 211
232 233 234 234 235 235 234 234 236 235 232 227 224 220 215 212 214 214 211 209 209 211 212 212 213 214 214 214 214 213 212 212 212 213 213 212 210 210 214 221 228 231 232 233 235 235 232 231 236 254 266 253 252 258 247 222 209 209 213 222 241 263 286 308 325 332 328 318 313 310 305 296 283 272 259 249 242 233 220 208 197 188 186 190 194 194 194
236 238 239 239 239 238 237 236 238 238 235 229 225 222 218 215 215 216 215 213 213 213 214 215 215 214 214 214 214 216 217 218 217 217 216 213 211 211 213 216 219 219 218 221 226 225 220 214 212 210 207 206 213 226 228 219 215 220 229 240 255 272 290 308 321 325 321 319 318 319 324 330 336 336 299 204 201 199 195 191 189 187 187 191 196 201 207
233 236 239 240 240 238 237 237 239 240 236 230 226 224 223 221 218 216 215 215 216 217 217 218 219 218 217 215 214 214 217 220 222 222 222 219 217 217 220 223 223 218 213 214 215 212 209 208 208 200 196 199 199 197 192 190 200 218 233 246 260 273 285 298 306 310 313 315 313 312 318 327 340 357 63 161 176 181 180 182 185 188 189 195 201 209 216
249 240 236 235 234 232 233 236 238 239 238 233 230 228 227 227 226 222 218 217 220 222 221 221 223 223 221 218 216 214 213 213 214 217 218 215 211 210 212 216 218 215 210 207 204 201 200 203 206 199 192 185 176 165 157 161 181 208 228 243 257 267 275 281 284 286 288 287 284 282 281 275 272 264 227 195 185 182 182 187 195 198 203 211 220 227 235
262 252 238 232 230 232 235 238 239 240 241 240 238 235 235 234 232 226 218 215 221 225 224 223 223 225 225 223 221 219 217 215 213 212 210 207 208 210 209 205 206 207 203 196 193 195 198 200 197 191 182 168 158 152 152 164 188 212 231 245 254 259 262 264 265 265 265 261 256 249 241 226 216 209 203 198 199 206 219 234 243 243 238 240 243 248 254
254 258 250 241 239 241 241 241 243 245 246 245 244 244 242 240 235 226 216 213 220 224 224 222 221 220 222 224 223 220 218 219 219 215 209 206 207 211 211 205 199 198 195 191 192 197 201 201 198 192 182 170 163 162 170 186 205 224 239 249 253 256 259 259 259 259 258 250 226 204 196 195 194 191 192 202 216 225 231 237 236 231 233 244 257 261 257
248 258 261 262 261 259 255 253 254 254 253 250 248 246 244 241 234 222 213 214 222 224 223 222 221 217 217 221 222 219 215 216 216 214 210 208 209 212 213 210 199 191 190 192 195 198 198 198 196 188 177 171 170 173 180 191 207 224 238 247 253 256 257 254 247 234 210 183 172 172 175 179 184 186 189 201 209 207 198 201 204 204 231 298 293 251 222
250 257 261 263 264 262 261 262 263 261 259 257 252 248 246 247 241 227 214 215 222 224 223 224 224 220 218 220 221 218 214 212 210 206 204 203 205 207 208 203 193 188 188 191 191 187 184 186 185 179 172 172 173 171 172 182 200 217 228 231 225 207 192 176 163 157 152 148 150 155 159 166 172 173 173 178 182 174 168 176 178 160 82 62 84 116 141
243 243 245 250 253 254 257 259 259 256 254 255 253 251 251 252 249 238 224 219 222 224 224 225 226 223 219 220 219 216 211 209 207 203 198 194 194 197 195 189 185 184 186 186 181 174 172 177 179 175 172 170 167 162 162 172 184 188 182 162 146 144 143 136 131 136 140 141 141 144 149 153 154 152 149 148 143 137 144 152 149 125 98 93 101 108 112